Hourly Data Report for January 01, 2020

SATURNA ISLAND CS
BRITISH COLUMBIA
Current Station Operator: ECCC - MSC

48°47'02.067" N
123°02'41.082" W
24.40 m
1017101
71473
WEZ

Download Data

Hourly Data (January 2020)
Hourly Data Report for January 1, 2020
TIME
LST
Temp Definition
°C
Dew Point Definition
°C
Rel Hum Definition
%
Precip. Amount Definition
mm

Wind Dir Definition
10's deg

Wind Spd Definition
km/h
Visibility Definition
km
Stn Press Definition
kPa
Hmdx Definition


Wind Chill Definition


Weather Definition


00:00 10.8 8.2 84 0.0 23 38   99.62     LegendNANA
01:00 11.3 7.7 78 0.0 24 15   99.70     LegendNANA
02:00 11.1 7.6 79 0.0 25 12   99.74     LegendNANA
03:00 11.4 7.3 76 0.0 25 16   99.78     LegendNANA
04:00 10.8 7.4 79 0.0 24 12   99.82     LegendNANA
05:00 11.0 6.9 76 0.0 26 7   99.88     LegendNANA
06:00 10.4 6.4 76 0.0 26 9   99.93     LegendNANA
07:00 10.2 6.0 75 0.0 27 6   100.03     LegendNANA
08:00 10.1 5.3 72 0.0 26 8   100.12     LegendNANA
09:00 10.9 5.7 70 0.0 26 6   100.23     LegendNANA
10:00 10.1 5.5 73 0.0 26 9   100.34     LegendNANA
11:00 12.3 6.1 66 0.0 22 12   100.41     LegendNANA
12:00 12.8 5.7 62 0.0 21 19   100.45     LegendNANA
13:00 12.6 5.9 64 0.0 22 16   100.47     LegendNANA
14:00 10.3 6.4 77 0.0 21 24   100.50     LegendNANA
15:00 10.3 6.9 79 0.0 21 23   100.51     LegendNANA
16:00 9.7 6.6 81 0.0 23 18   100.56     LegendNANA
17:00 9.5 5.4 76 0.0 25 14   100.57     LegendNANA
18:00 8.8 5.9 82 0.0 23 18   100.62     LegendNANA
19:00 7.7 4.0 77 0.0 28 7   100.78     LegendNANA
20:00 7.3 4.3 81 0.0 27 4   100.89     LegendNANA
21:00 7.0 3.5 78 0.0 33 5   101.05     LegendNANA
22:00 6.5 2.9 78 0.0 35 4   101.15     LegendNANA
23:00 6.5 2.0 73 0.0 29 5   101.22     LegendNANA

Notes on Data Quality.

Legend

  • E = Estimated
  • M = Missing
  • NA = Not Available*
  • [empty] = Indicates an unobserved value
Date modified: